WGS 10 (USA 291) (44071 NORAD) Tracking and Keplerian Element Data

This shows tracking and keplerian element data for the satellite.

Feedback or suggestion? Click here.




ElementValue
Catalog44071
NameWGS 10 (USA 291)
Epoch Orbit132
Epoch Day202.74034271
Epoch Year2019
RAAN103.5166
Inclination0.0272
Eccentricity0.0001313
Argument of Perigee93.9378
Mean Anonmoly246.3896
Mean Motion1.00273
Decay Rate1.5E-07
L11 44071U 19014A 19202.74034271 .00000015 00000-0 00000+0 0 9998
L22 44071 0.0272 103.5166 0001313 93.9378 246.3896 1.00273000 1325

Live tracking and technical data element details for WGS 10 (USA 291) (NORAD 44071). WGS 10 (USA 291) can be tracked NOW for your location showing map with azimuth and elevation plus other details from your city location.

Track the satellite on the map from your city or location and see movement details for azimuth, elevation, latitude, longitude, range, height, and movement on the map or in text.







IsCatalogInMostPopularTable: catalog: 44071, numindb: 97
Update: records affected: 1



GetName: 44071 WGS 10 (USA 291)

Hit Count: updated at: Mon, 22 Jul 2019 16:34:44 GMT